Weather History for Stanley, ND

Change the Weather History Date:

Saturday, March 30, 2013

  Actual Average (KMOT) Record (KMOT)
Temperature  
Mean Temperature 28 °F 35 °F  
Max Temperature 35 °F 45 °F 79 °F (1966)
Min Temperature 21 °F 25 °F -15 °F (1923)
Degree Days  
Heating Degree Days 37 30  
Month to date heating degree days 1106  
Since 1 July heating degree days 7682  
Cooling Degree Days 0 0  
Month to date cooling degree days 0  
Year to date cooling degree days 0  
Moisture  
Dew Point 28 °F    
Average Humidity 95    
Maximum Humidity 100    
Minimum Humidity 75    
Precipitation  
Precipitation 0.02 in 0.04 in 0.91 in (2006)
Month to date precipitation 0.80  
Year to date precipitation 1.71  
Sea Level Pressure  
Sea Level Pressure 30.01 in    
Wind  
Wind Speed 12 mph (WNW)    
Max Wind Speed 22 mph    
Max Gust Speed 30 mph    
Visibility 9 miles    
Events Snow    
T = Trace of Precipitation, MM = Missing Value Source: NWS Daily Summary

Daily Weather History Graph

Daily Weather History Graph

Search for Another Location

Airport:

Trip Planner

Search our weather history database for the weather conditions in past years. The results will help you decide how hot, cold, wet, or windy it might be!

Date:

Astronomy

Mar. 30, 2013 Rise Set
Actual Time 7:31 AM CDT 8:17 PM CDT
Civil Twilight 6:59 AM CDT 8:49 PM CDT
Nautical Twilight 6:22 AM CDT 9:26 PM CDT
Astronomical Twilight 5:42 AM CDT 10:06 PM CDT
Moon No Moon Rise 9:10 AM CDT (3/30)
Length of Visible Light 13h 49m
Length of Day
12h 46m
Waning Gibbous, 86% of the Moon is Illuminated
Mar 30
Waning Gibbous
Apr 2
Last Quarter
Apr 10
New
Apr 18
First Quarter
Apr 25
Full

Hourly Weather History & Observations

Time (CDT) Temp. Windchill Dew Point Humidity Pressure Visibility Wind Dir Wind Speed Gust Speed Precip Events Conditions
12:15 AM 30.2 °F 21.3 °F 30.2 °F 100% 29.99 in 3.0 mi WNW 10.4 mph - N/A   Clear
12:35 AM 30.2 °F 20.8 °F 30.2 °F 100% 29.99 in 2.5 mi NW 11.5 mph - N/A   Clear
12:55 AM 30.2 °F 20.2 °F 30.2 °F 100% 30.00 in 2.5 mi NW 12.7 mph - N/A   Clear
1:15 AM 30.2 °F 20.2 °F 30.2 °F 100% 29.99 in 2.0 mi NW 12.7 mph - N/A   Clear
1:35 AM 28.4 °F 18.0 °F 28.4 °F 100% 29.99 in 3.0 mi NW 12.7 mph - N/A   Clear
1:55 AM 28.4 °F 17.5 °F 28.4 °F 100% 30.00 in 3.0 mi WNW 13.8 mph - N/A   Clear
2:15 AM 26.6 °F 15.2 °F 26.6 °F 100% 30.00 in 4.0 mi NW 13.8 mph - N/A   Clear
2:35 AM 26.6 °F 16.8 °F 26.6 °F 100% 30.00 in 5.0 mi NW 10.4 mph - N/A   Clear
2:55 AM 26.6 °F 14.7 °F 26.6 °F 100% 30.00 in 10.0 mi NW 15.0 mph - N/A   Clear
3:15 AM 26.6 °F 14.3 °F 26.6 °F 100% 29.99 in 10.0 mi NW 16.1 mph - N/A   Clear
3:35 AM 26.6 °F 13.8 °F 26.6 °F 100% 30.00 in 10.0 mi NW 17.3 mph - N/A   Clear
3:55 AM 26.6 °F 15.2 °F 26.6 °F 100% 30.00 in 10.0 mi NW 13.8 mph - N/A   Clear
4:15 AM 26.6 °F 16.2 °F 26.6 °F 100% 30.00 in 10.0 mi NW 11.5 mph - N/A   Clear
4:35 AM 24.8 °F 13.4 °F 24.8 °F 100% 30.00 in 10.0 mi NW 12.7 mph - N/A   Clear
4:55 AM 24.8 °F 15.3 °F 24.8 °F 100% 30.00 in 10.0 mi WNW 9.2 mph - N/A   Clear
5:15 AM 24.8 °F 16.1 °F 24.8 °F 100% 30.00 in 10.0 mi WNW 8.1 mph - N/A   Clear
5:35 AM 24.8 °F 14.0 °F 24.8 °F 100% 30.00 in 10.0 mi WNW 11.5 mph - N/A   Clear
5:55 AM 23.0 °F - 23.0 °F 100% 30.00 in 10.0 mi Calm Calm - N/A   Clear
6:15 AM 23.0 °F 18.4 °F 23.0 °F 100% 30.01 in 10.0 mi NW 3.5 mph - N/A   Clear
6:35 AM 23.0 °F - 23.0 °F 100% 30.01 in 10.0 mi Calm Calm - N/A   Clear
6:55 AM 21.2 °F 12.6 °F 21.2 °F 100% 30.01 in 10.0 mi West 6.9 mph - N/A   Clear
7:15 AM 21.2 °F 14.9 °F 21.2 °F 100% 30.01 in 10.0 mi WNW 4.6 mph - N/A   Clear
7:35 AM 23.0 °F 13.1 °F 23.0 °F 100% 30.02 in 10.0 mi NW 9.2 mph - N/A   Clear
7:55 AM 23.0 °F 12.4 °F 23.0 °F 100% 30.01 in 10.0 mi NW 10.4 mph - N/A   Clear
8:15 AM 23.0 °F 10.1 °F 23.0 °F 100% 30.01 in 10.0 mi NW 15.0 mph 19.6 mph N/A   Clear
8:35 AM 23.0 °F - 23.0 °F 100% 30.02 in 10.0 mi Calm Calm - N/A   Clear
8:55 AM 24.8 °F 16.9 °F 23.0 °F 93% 30.02 in 10.0 mi NW 6.9 mph - N/A   Clear
9:15 AM 24.8 °F 16.9 °F 24.8 °F 100% 30.03 in 10.0 mi WNW 6.9 mph - N/A   Clear
9:35 AM 24.8 °F - 24.8 °F 100% 30.03 in 10.0 mi Calm Calm - N/A   Clear
9:55 AM 26.6 °F 20.0 °F 24.8 °F 93% 30.03 in 10.0 mi West 5.8 mph - N/A   Clear
10:15 AM 28.4 °F 21.2 °F 26.6 °F 93% 30.03 in 10.0 mi West 6.9 mph - N/A   Clear
10:35 AM 26.6 °F 16.8 °F 26.6 °F 100% 30.03 in 10.0 mi NW 10.4 mph - N/A   Clear
10:55 AM 28.4 °F 18.0 °F 26.6 °F 93% 30.03 in 10.0 mi WNW 12.7 mph - N/A   Clear
11:15 AM 30.2 °F 23.4 °F 28.4 °F 93% 30.03 in 10.0 mi WSW 6.9 mph - N/A   Clear
11:35 AM 30.2 °F 23.4 °F 28.4 °F 93% 30.04 in 10.0 mi WSW 6.9 mph - N/A   Clear
11:55 AM 32.0 °F 24.8 °F 28.4 °F 87% 30.03 in 10.0 mi West 8.1 mph - N/A   Clear
12:15 PM 32.0 °F 22.5 °F 28.4 °F 87% 30.03 in 10.0 mi West 12.7 mph 16.1 mph N/A   Clear
12:35 PM 32.0 °F 24.8 °F 28.4 °F 87% 30.04 in 10.0 mi West 8.1 mph - N/A   Clear
12:55 PM 32.0 °F 23.0 °F 30.2 °F 93% 30.04 in 10.0 mi West 11.5 mph - N/A   Clear
1:15 PM 32.0 °F 23.0 °F 30.2 °F 93% 30.03 in 10.0 mi West 11.5 mph - N/A   Clear
1:35 PM 32.0 °F 20.5 °F 30.2 °F 93% 30.02 in 10.0 mi WNW 18.4 mph 21.9 mph N/A   Clear
1:55 PM 32.0 °F 20.8 °F 32.0 °F 100% 30.02 in 10.0 mi WNW 17.3 mph - N/A   Clear
2:15 PM 32.0 °F 23.0 °F 32.0 °F 100% 30.02 in 10.0 mi WNW 11.5 mph - N/A   Clear
2:35 PM 32.0 °F 21.2 °F 32.0 °F 100% 30.02 in 10.0 mi WNW 16.1 mph - N/A   Partly Cloudy
2:55 PM 33.8 °F 23.5 °F 32.0 °F 93% 30.02 in 10.0 mi WNW 16.1 mph 21.9 mph N/A   Partly Cloudy
3:15 PM 33.8 °F 23.2 °F 32.0 °F 93% 30.03 in 10.0 mi WNW 17.3 mph 21.9 mph N/A   Scattered Clouds
3:35 PM 32.0 °F 21.6 °F 32.0 °F 100% 30.02 in 8.0 mi West 15.0 mph - 0.02 in Snow Light Snow
3:55 PM 33.8 °F 25.3 °F 33.8 °F 100% 30.01 in 10.0 mi West 11.5 mph - 0.02 in   Clear
4:15 PM 35.6 °F 26.2 °F 35.6 °F 100% 30.00 in 10.0 mi West 15.0 mph - N/A   Clear
4:35 PM 35.6 °F 25.9 °F 35.6 °F 100% 30.00 in 10.0 mi West 16.1 mph - N/A   Clear
4:55 PM 35.6 °F 26.2 °F 35.6 °F 100% 30.00 in 10.0 mi West 15.0 mph - N/A   Scattered Clouds
5:15 PM 35.6 °F 24.8 °F 35.6 °F 100% 30.00 in 10.0 mi WNW 19.6 mph 23.0 mph N/A   Scattered Clouds
5:35 PM 35.6 °F 25.9 °F 35.6 °F 100% 29.99 in 10.0 mi WNW 16.1 mph - N/A   Partly Cloudy
5:55 PM 35.6 °F 25.2 °F 33.8 °F 93% 29.99 in 10.0 mi WNW 18.4 mph 23.0 mph N/A   Mostly Cloudy
6:15 PM 35.6 °F 25.2 °F 33.8 °F 93% 29.99 in 10.0 mi WNW 18.4 mph 24.2 mph N/A   Scattered Clouds
6:35 PM 35.6 °F 25.5 °F 32.0 °F 87% 29.99 in 10.0 mi WNW 17.3 mph - N/A   Clear
6:55 PM 33.8 °F 23.2 °F 32.0 °F 93% 29.99 in 10.0 mi WNW 17.3 mph 23.0 mph N/A   Clear
7:15 PM 33.8 °F 22.2 °F 30.2 °F 87% 29.99 in 10.0 mi NW 20.7 mph 26.5 mph N/A   Clear
7:35 PM 32.0 °F 20.5 °F 28.4 °F 87% 29.99 in 10.0 mi NW 18.4 mph 25.3 mph N/A   Clear
7:55 PM 32.0 °F 20.8 °F 28.4 °F 87% 29.99 in 10.0 mi NW 17.3 mph 23.0 mph N/A   Clear
8:15 PM 32.0 °F 21.6 °F 28.4 °F 87% 30.00 in 10.0 mi WNW 15.0 mph - N/A   Clear
8:35 PM 32.0 °F 21.2 °F 24.8 °F 75% 30.00 in 10.0 mi NW 16.1 mph 24.2 mph N/A   Clear
8:55 PM 30.2 °F 18.9 °F 26.6 °F 86% 30.01 in 10.0 mi NW 16.1 mph - N/A   Clear
9:15 PM 28.4 °F 17.0 °F 26.6 °F 93% 30.02 in 10.0 mi NW 15.0 mph 23.0 mph N/A   Clear
9:35 PM 28.4 °F 14.7 °F 24.8 °F 86% 30.02 in 10.0 mi NW 21.9 mph 29.9 mph N/A   Clear
9:55 PM 28.4 °F 15.8 °F 24.8 °F 86% 30.02 in 10.0 mi NW 18.4 mph 27.6 mph N/A   Clear
10:35 PM 28.4 °F 15.1 °F 24.8 °F 86% 30.03 in 10.0 mi NW 20.7 mph 27.6 mph N/A   Clear
10:55 PM 28.4 °F 15.4 °F 24.8 °F 86% 30.04 in 10.0 mi NW 19.6 mph 28.8 mph N/A   Clear
11:15 PM 26.6 °F 12.7 °F 24.8 °F 93% 30.04 in 10.0 mi NW 20.7 mph 26.5 mph N/A   Clear
11:35 PM 26.6 °F 13.1 °F 24.8 °F 93% 30.04 in 10.0 mi NW 19.6 mph 25.3 mph N/A   Clear
11:55 PM 26.6 °F 13.8 °F 24.8 °F 93% 30.05 in 10.0 mi NW 17.3 mph 23.0 mph N/A   Clear